FW0442 Weather Reports


time (UTC)temp
C
wind
direction
speed
KPH
gust
KPH
rain 1hr
cm
rain 24hr
cm
rain mn
cm
humidity
%
barometer
mb
20260507161234 14 145 4.8 14.5 0.00 0.00 0.00 63 1013.7
20260507154234 14 193 3.2 14.5 0.00 0.00 0.00 64 1013.6
20260507151230 14 180 1.6 9.7 0.00 0.00 0.00 67 1013.8
20260507144230 14 172 3.2 14.5 0.00 0.00 0.00 60 1013.9
20260507134232 14 151 4.8 11.3 0.00 0.00 0.00 60 1014.2
20260507131230 14 159 3.2 9.7 0.00 0.00 0.00 62 1014.3
20260507124232 15 147 3.2 14.5 0.00 0.00 0.00 63 1014.4
20260507121231 15 154 6.4 16.1 0.00 0.00 0.00 64 1014.5
20260507114232 14 172 3.2 14.5 0.00 0.00 0.00 70 1014.7
20260507111231 13 164 3.2 8.0 0.00 0.00 0.00 74 1015.0
20260507101231 10 259 0.0 4.8 0.00 0.00 0.00 83 1015.3
20260507094232 9 24 0.0 4.8 0.00 0.00 0.00 85 1015.4
20260507084232 7 147 0.0 1.6 0.00 0.00 0.00 90 1015.4
20260507081231 7 193 0.0 3.2 0.00 0.00 0.00 90 1015.3
20260507074232 6 66 0.0 3.2 0.00 0.00 0.00 92 1015.2
20260507071231 6 140 0.0 3.2 0.00 0.00 0.00 92 1015.2
20260507064231 6 312 0.0 1.6 0.00 0.00 0.00 93 1015.0
20260507054232 5 80 0.0 4.8 0.00 0.00 0.00 94 1014.9
20260507041232 5 1 0.0 3.2 0.00 0.00 0.00 94 1014.6
20260507034231 5 141 0.0 4.8 0.00 0.00 0.00 94 1014.5
20260507031230 5 37 0.0 4.8 0.00 0.00 0.00 94 1014.7
20260507024231 5 20 1.6 4.8 0.00 0.00 0.00 93 1014.7
20260507021231 5 37 0.0 3.2 0.00 0.00 0.00 93 1014.9
20260507014233 6 42 0.0 4.8 0.00 0.00 0.00 93 1014.9
20260507011227 6 52 0.0 3.2 0.00 0.00 0.00 92 1014.9
20260507001223 6 310 0.0 6.4 0.00 0.00 0.00 91 1014.9
20260506234216 6 97 0.0 4.8 0.00 0.00 0.00 90 1014.9
20260506231215 6 6 0.0 6.4 0.00 0.00 0.00 89 1014.8
20260506224207 7 319 0.0 3.2 0.00 0.00 0.00 88 1014.9
20260506211202 7 27 0.0 3.2 0.00 0.00 0.00 84 1014.5
20260506204202 7 31 1.6 4.8 0.00 0.00 0.00 82 1014.2
20260506191202 10 293 0.0 4.8 0.00 0.00 0.00 71 1013.4
20260506181201 12 61 1.6 8.0 0.00 0.00 0.00 61 1013.3
20260506174203 12 21 0.0 8.0 0.00 0.00 0.00 61 1013.1
20260506171202 12 124 0.0 4.8 0.00 0.00 0.00 59 1012.9
20260506164203 12 56 1.6 8.0 0.00 0.00 0.00 56 1013.0